Starlink 30702

operational
NORAD ID: 57955 Int'l Des: 2023-148 Owner: SPXS Country: US Constellation: starlink
LEOCIRCULAR

About Starlink 30702

Description loading...

Live Position

Loading 3D Globe...

Upcoming Passes

Altitude History

Altitude vs Time

uPlot chart will show altitude changes over time

Two-Line Element Set

1 57955U 23148W 25350.42274360 .00002300 00000-0 89766-4 0 9997
2 57955 53.1615 40.9800 0001266 74.2697 285.8444 15.30191129125819
Epoch: Dec 16, 2025 • Age: 23 hours

Current Status

Altitude 482.2 km
Velocity 7.62 km/s
Sub-Earth Point -22.59°S, 13.39°E
Launch Date Sep 25, 2023
Age 2.2 years
Type internet

Technical Details

Classification Payload
Mass 730.00 kg
Dry Mass 700.00 kg
Total Mass 730.00 kg
Length 0.30 m
Diameter 4.10 m
Span 29.00 m
Shape Box + pan
Manufacturer SPXS
Bus Type Starlink V2M
Phase Status In Orbit
Owner/State SPXS/US

Large Constellations

Loading constellations...